FW6618 Weather Reports


Display with metric or nautical units.
time (UTC)temp
F
wind
direction
speed
MPH
gust
MPH
rain 1hr
in
rain 24hr
in
rain mn
in
humidity
%
barometer
mb
20260831082523 59 0 0.0 0.0 0.00 0.04 0.00 97 1021.6
20260831082020 59 0 0.0 0.0 0.00 0.04 0.00 97 1021.7
20260831081545 59 0 0.0 0.0 0.00 0.04 0.00 97 1021.5
20260831081026 59 0 0.0 0.0 0.00 0.04 0.00 98 1021.6
20260831080526 59 0 0.0 0.0 0.00 0.04 0.00 97 1021.7
20260831080046 59 0 0.0 0.0 0.00 0.04 0.00 97 1021.6
20260831075524 60 0 0.0 0.0 0.00 0.04 0.00 97 1021.6
20260831075023 60 0 0.0 0.0 0.00 0.04 0.00 97 1021.5
20260831074547 60 0 0.0 0.0 0.00 0.04 0.00 98 1021.6
20260831074027 60 0 0.0 0.0 0.00 0.04 0.00 98 1021.5
20260831073524 60 0 0.0 0.0 0.00 0.04 0.00 97 1021.3
20260831073054 60 0 0.0 0.0 0.00 0.04 0.00 98 1021.4
20260831072524 60 0 0.0 0.0 0.00 0.04 0.00 97 1021.3
20260831072020 60 0 0.0 0.0 0.00 0.04 0.00 97 1021.4
20260831071542 60 0 0.0 0.0 0.00 0.04 0.00 97 1021.4
20260831071025 60 0 0.0 0.0 0.00 0.04 0.00 97 1021.4
20260831070521 60 0 0.0 0.0 0.00 0.04 0.00 97 1021.4
20260831070052 60 0 0.0 0.0 0.00 0.04 0.00 97 1021.5
20260831065526 60 0 0.0 0.0 0.00 0.04 0.00 97 1021.5
20260831065025 60 0 0.0 0.0 0.00 0.04 0.00 97 1021.4
20260831064544 60 0 0.0 0.0 0.00 0.04 0.00 97 1021.5
20260831064021 61 0 0.0 0.0 0.00 0.04 0.00 97 1021.4
20260831063521 61 0 0.0 0.0 0.00 0.04 0.00 97 1021.4
20260831063042 61 0 0.0 0.0 0.00 0.04 0.00 97 1021.4
20260831062525 61 0 0.0 0.0 0.00 0.04 0.00 97 1021.4
20260831062025 61 0 0.0 0.0 0.00 0.04 0.00 97 1021.4
20260831061539 61 0 0.0 0.0 0.00 0.04 0.00 97 1021.3
20260831061025 61 0 0.0 0.0 0.00 0.04 0.00 97 1021.4
20260831060528 61 0 0.0 0.0 0.00 0.04 0.00 97 1021.3
20260831060047 61 0 0.0 0.0 0.00 0.04 0.00 97 1021.4
20260831055523 61 0 0.0 0.0 0.00 0.04 0.00 97 1021.5
20260831055025 61 0 0.0 0.0 0.00 0.04 0.00 97 1021.5
20260831054542 61 0 0.0 0.0 0.00 0.04 0.00 97 1021.4
20260831054023 61 0 0.0 0.0 0.00 0.04 0.00 97 1021.4
20260831053524 61 0 0.0 0.0 0.00 0.04 0.00 97 1021.4
20260831053041 61 0 0.0 0.0 0.00 0.04 0.00 97 1021.3
20260831052523 61 0 0.0 0.0 0.00 0.04 0.00 97 1021.4
20260831052027 61 0 0.0 0.0 0.00 0.04 0.00 97 1021.4
20260831051544 61 0 0.0 0.0 0.00 0.04 0.00 97 1021.3
20260831051023 61 0 0.0 0.0 0.00 0.04 0.00 97 1021.4
20260831050520 61 0 0.0 0.0 0.00 0.04 0.00 97 1021.3
20260831050058 61 0 0.0 0.0 0.00 0.04 0.00 97 1021.3
20260831045520 61 0 0.0 0.0 0.00 0.04 0.00 97 1021.4
20260831045023 61 0 0.0 0.0 0.00 0.04 0.00 97 1021.3
20260831044601 61 0 0.0 0.0 0.00 0.04 0.00 97 1021.4
20260831044025 61 335 0.0 0.0 0.00 0.04 0.00 97 1021.4
20260831043519 61 0 0.0 0.0 0.00 0.04 0.00 97 1021.3
20260831043041 61 0 0.0 0.0 0.00 0.04 0.00 97 1021.4
20260831042523 61 0 0.0 1.0 0.00 0.04 0.00 97 1021.4
20260831042023 61 0 0.0 1.0 0.00 0.04 0.00 97 1021.2
20260831041545 61 334 0.0 1.0 0.00 0.04 0.00 97 1021.2
20260831041023 61 0 0.0 0.0 0.00 0.04 0.00 97 1020.9
20260831040521 61 0 0.0 0.0 0.00 0.04 0.00 97 1021.1
20260831040049 61 0 0.0 0.0 0.00 0.04 0.00 97 1021.0
20260831035524 61 0 0.0 0.0 0.00 0.04 0.04 97 1020.9
20260831035024 61 0 0.0 0.0 0.00 0.04 0.04 97 1021.0
20260831034545 61 0 0.0 0.0 0.00 0.04 0.04 97 1021.0
20260831034103 62 0 0.0 0.0 0.00 0.04 0.04 97 1021.1
20260831033525 62 0 0.0 0.0 0.00 0.04 0.04 97 1021.1
20260831033042 62 0 0.0 0.0 0.00 0.04 0.04 97 1021.1
20260831032523 62 0 0.0 0.0 0.00 0.04 0.04 97 1021.3
20260831032019 62 0 0.0 1.0 0.00 0.04 0.04 97 1021.4
20260831031546 62 0 0.0 2.0 0.00 0.04 0.04 97 1021.4
20260831031024 62 334 0.0 2.0 0.00 0.04 0.04 97 1021.4
20260831030526 62 0 0.0 1.0 0.00 0.04 0.04 97 1021.2
20260831030055 62 77 0.0 1.0 0.00 0.04 0.04 97 1021.1
20260831025524 62 0 0.0 0.0 0.00 0.04 0.04 97 1021.0
20260831025024 62 0 0.0 0.0 0.00 0.04 0.04 97 1021.2
20260831024608 62 0 0.0 0.0 0.00 0.04 0.04 97 1021.4
20260831024024 62 0 0.0 0.0 0.00 0.04 0.04 97 1021.3
20260831023520 62 0 0.0 0.0 0.00 0.04 0.04 97 1021.2
20260831023040 62 0 0.0 0.0 0.00 0.04 0.04 97 1021.2
20260831022522 62 0 0.0 0.0 0.00 0.04 0.04 97 1021.0
20260831022019 63 0 0.0 0.0 0.00 0.04 0.04 97 1021.0
20260831021543 63 0 0.0 0.0 0.00 0.04 0.04 97 1020.9
20260831021025 63 0 0.0 0.0 0.00 0.04 0.04 97 1020.8
20260831020525 63 0 0.0 0.0 0.00 0.04 0.04 97 1020.8
20260831020104 63 0 0.0 0.0 0.00 0.04 0.04 97 1020.7
20260831015519 63 0 0.0 0.0 0.00 0.04 0.04 97 1020.7
20260831015019 63 0 0.0 0.0 0.00 0.04 0.04 97 1020.8
20260831014558 63 0 0.0 1.0 0.00 0.04 0.04 97 1020.7
20260831014019 63 0 0.0 1.0 0.00 0.04 0.04 97 1020.7
20260831013523 64 49 0.0 1.0 0.00 0.04 0.04 97 1020.8
20260831013041 64 272 0.0 1.0 0.00 0.04 0.04 97 1020.7
20260831012524 64 0 0.0 2.0 0.00 0.04 0.04 97 1020.7
20260831012023 64 132 0.0 2.0 0.00 0.04 0.04 97 1020.7
20260831011538 64 293 0.0 2.0 0.00 0.04 0.04 97 1020.6
20260831011023 64 0 1.0 2.0 0.00 0.04 0.04 97 1020.6
20260831010524 64 0 0.0 1.0 0.00 0.04 0.04 96 1020.5
20260831010048 64 0 0.0 1.0 0.00 0.04 0.04 96 1020.4
20260831005519 64 285 0.0 3.0 0.00 0.04 0.04 96 1020.4
20260831005019 64 305 0.0 3.0 0.00 0.04 0.04 96 1020.4
20260831004542 64 156 0.0 2.0 0.00 0.04 0.04 97 1020.2
20260831004020 64 330 0.0 3.0 0.00 0.04 0.04 96 1020.2
20260831003528 64 330 1.0 3.0 0.01 0.04 0.04 96 1020.1
20260831003040 64 238 1.0 3.0 0.01 0.04 0.04 96 1020.1
20260831002524 64 0 0.0 0.0 0.01 0.04 0.04 96 1020.0
20260831002023 64 0 0.0 0.0 0.01 0.04 0.04 96 1019.8
20260831001552 64 0 0.0 0.0 0.01 0.04 0.04 96 1019.7
20260831001020 64 0 0.0 1.0 0.01 0.04 0.04 96 1019.6
20260831000521 65 0 0.0 1.0 0.01 0.04 0.04 96 1019.6
20260831000043 65 0 0.0 1.0 0.01 0.04 0.04 95 1019.6
20260830235529 65 328 0.0 3.0 0.01 0.04 0.04 95 1019.5
20260830235032 65 347 2.0 4.0 0.02 0.04 0.04 95 1019.5
20260830234605 65 281 0.0 4.0 0.02 0.04 0.04 95 1019.5
20260830234023 65 86 1.0 4.0 0.02 0.04 0.04 95 1019.5
20260830233527 65 0 0.0 1.0 0.01 0.03 0.03 95 1019.4
20260830233044 65 283 0.0 4.0 0.02 0.03 0.03 95 1019.4
20260830232526 65 0 1.0 4.0 0.02 0.03 0.03 95 1019.3
20260830232024 66 328 0.0 5.0 0.02 0.03 0.03 95 1019.1
20260830231544 66 278 0.0 5.0 0.02 0.03 0.03 94 1019.0
20260830231020 66 165 1.0 3.0 0.02 0.03 0.03 93 1019.2
20260830230519 66 244 1.0 4.0 0.03 0.03 0.03 91 1019.2
20260830230042 67 74 1.0 5.0 0.03 0.03 0.03 91 1019.4
20260830225520 67 316 2.0 5.0 0.03 0.03 0.03 91 1019.4
20260830225026 67 278 0.0 4.0 0.02 0.02 0.02 93 1019.5
20260830224549 67 330 2.0 4.0 0.02 0.02 0.02 90 1019.4
20260830224024 67 128 1.0 3.0 0.02 0.02 0.02 92 1019.4
20260830223524 67 345 1.0 3.0 0.02 0.02 0.02 92 1019.3
20260830223045 68 345 0.0 3.0 0.01 0.01 0.01 90 1019.4
20260830222520 68 352 1.0 3.0 0.01 0.01 0.01 88 1019.3
20260830222024 68 89 1.0 5.0 0.01 0.01 0.01 87 1019.3
20260830221541 69 127 1.0 5.0 0.01 0.01 0.01 85 1019.3
20260830221017 69 116 2.0 5.0 0.01 0.01 0.01 85 1019.2
20260830220517 70 15 0.0 3.0 0.00 0.00 0.00 85 1019.2
20260830220044 70 56 0.0 2.0 0.00 0.00 0.00 84 1019.2
20260830215518 70 196 0.0 2.0 0.00 0.00 0.00 84 1019.1
20260830215025 70 275 0.0 2.0 0.00 0.00 0.00 83 1019.1
20260830214544 71 0 0.0 2.0 0.00 0.00 0.00 82 1019.2
20260830214023 71 241 0.0 2.0 0.00 0.00 0.00 82 1019.0
20260830213519 71 0 0.0 1.0 0.00 0.00 0.00 80 1019.0
20260830213044 72 313 0.0 1.0 0.00 0.00 0.00 82 1019.1
20260830212522 72 0 0.0 3.0 0.00 0.00 0.00 80 1019.0
20260830212023 72 323 1.0 4.0 0.00 0.00 0.00 83 1019.1
20260830211541 72 55 1.0 4.0 0.00 0.00 0.00 79 1019.0
20260830211024 71 270 1.0 3.0 0.00 0.00 0.00 80 1019.0
20260830210525 71 266 1.0 3.0 0.00 0.00 0.00 83 1019.2
20260830210046 71 146 0.0 1.0 0.00 0.00 0.00 84 1019.1
20260830205527 71 295 0.0 3.0 0.00 0.00 0.00 83 1019.1
20260830205026 71 259 1.0 3.0 0.00 0.00 0.00 84 1019.1
20260830204541 71 144 0.0 2.0 0.00 0.00 0.00 83 1019.0
20260830204025 72 0 0.0 1.0 0.00 0.00 0.00 82 1019.1
20260830203524 72 313 0.0 2.0 0.00 0.00 0.00 80 1019.2
20260830203047 73 274 1.0 3.0 0.00 0.00 0.00 79 1019.2
20260830202528 73 262 1.0 3.0 0.00 0.00 0.00 74 1019.1
20260830202025 74 0 1.0 2.0 0.00 0.00 0.00 76 1019.2
20260830201607 74 274 1.0 2.0 0.00 0.00 0.00 72 1019.1
20260830201024 74 60 1.0 2.0 0.00 0.00 0.00 72 1019.3
20260830200524 74 293 1.0 5.0 0.00 0.00 0.00 73 1019.2
20260830200044 75 23 0.0 5.0 0.00 0.00 0.00 68 1019.2
20260830195524 75 13 1.0 5.0 0.00 0.00 0.00 69 1019.2
20260830195021 75 281 1.0 5.0 0.00 0.00 0.00 73 1019.2
20260830194545 75 287 0.0 5.0 0.00 0.00 0.00 72 1019.2
20260830194023 75 285 1.0 5.0 0.00 0.00 0.00 69 1019.2
20260830193524 76 359 1.0 4.0 0.00 0.00 0.00 69 1019.3
20260830193048 76 131 2.0 7.0 0.00 0.00 0.00 68 1019.3
20260830192524 76 25 1.0 7.0 0.00 0.00 0.00 69 1019.5
20260830192023 76 22 1.0 7.0 0.00 0.00 0.00 67 1019.5
20260830191549 75 266 1.0 5.0 0.00 0.00 0.00 69 1019.4
20260830191031 75 292 1.0 8.0 0.00 0.00 0.00 68 1019.5
20260830190523 75 56 2.0 8.0 0.00 0.00 0.00 69 1019.6
20260830190045 75 317 1.0 5.0 0.00 0.00 0.00 67 1019.6
20260830185525 75 131 2.0 5.0 0.00 0.00 0.00 68 1019.8
20260830185025 75 122 2.0 5.0 0.00 0.00 0.00 69 1019.9
20260830184545 75 144 1.0 7.0 0.00 0.00 0.00 70 1019.8
20260830184024 75 177 1.0 7.0 0.00 0.00 0.00 68 1020.0
20260830183530 76 138 2.0 7.0 0.00 0.00 0.00 69 1020.0
20260830183046 76 179 1.0 4.0 0.00 0.00 0.00 71 1020.0
20260830182524 75 204 1.0 5.0 0.00 0.00 0.00 69 1020.1
20260830182024 75 215 1.0 5.0 0.00 0.00 0.00 68 1020.2
20260830181602 75 97 1.0 7.0 0.00 0.00 0.00 70 1020.1
20260830181020 75 279 2.0 7.0 0.00 0.00 0.00 68 1020.1
20260830180519 75 170 1.0 4.0 0.00 0.00 0.00 68 1020.3
20260830180048 75 292 1.0 7.0 0.00 0.00 0.00 69 1020.4
20260830175518 74 271 1.0 7.0 0.00 0.00 0.00 71 1020.3
20260830175020 75 72 1.0 5.0 0.00 0.00 0.00 71 1020.3
20260830174542 75 279 1.0 5.0 0.00 0.00 0.00 66 1020.4
20260830174018 74 285 2.0 7.0 0.00 0.00 0.00 67 1020.5
20260830173524 75 88 2.0 7.0 0.00 0.00 0.00 70 1020.5
20260830173040 75 144 2.0 6.0 0.00 0.00 0.00 67 1020.6
20260830172523 75 154 1.0 6.0 0.00 0.00 0.00 71 1020.6
20260830172021 75 193 3.0 6.0 0.00 0.00 0.00 68 1020.5
20260830171544 75 160 2.0 5.0 0.00 0.00 0.00 65 1020.6
20260830171020 75 98 1.0 5.0 0.00 0.00 0.00 69 1020.6
20260830170519 75 44 2.0 6.0 0.00 0.00 0.00 68 1020.6
20260830170042 76 283 2.0 6.0 0.00 0.00 0.00 65 1020.7
20260830165520 76 312 1.0 5.0 0.00 0.00 0.00 65 1020.6
20260830165020 76 148 1.0 5.0 0.00 0.00 0.00 65 1020.7
20260830164541 77 117 2.0 6.0 0.00 0.00 0.00 66 1020.7
20260830164025 77 221 1.0 6.0 0.00 0.00 0.00 66 1020.7
20260830163525 77 201 2.0 6.0 0.00 0.00 0.00 66 1020.8
20260830163041 77 152 0.0 5.0 0.00 0.00 0.00 67 1020.9
20260830162526 76 69 2.0 7.0 0.00 0.00 0.00 63 1021.0
20260830162021 76 88 2.0 7.0 0.00 0.00 0.00 64 1021.2
20260830161541 75 272 1.0 4.0 0.00 0.00 0.00 67 1021.2
20260830161019 75 224 1.0 4.0 0.00 0.00 0.00 67 1021.4
20260830160520 75 210 2.0 4.0 0.00 0.00 0.00 66 1021.4
20260830160043 75 94 1.0 4.0 0.00 0.00 0.00 66 1021.2
20260830155518 74 6 1.0 5.0 0.00 0.00 0.00 69 1021.4
20260830155019 74 75 1.0 5.0 0.00 0.00 0.00 67 1021.4
20260830154542 74 105 2.0 5.0 0.00 0.00 0.00 68 1021.4
20260830154024 73 77 1.0 5.0 0.00 0.00 0.00 71 1021.5
20260830153523 72 322 2.0 6.0 0.00 0.00 0.00 69 1021.7
20260830153047 72 241 1.0 6.0 0.00 0.00 0.00 70 1021.8
20260830152524 72 125 2.0 6.0 0.00 0.00 0.00 70 1021.9
20260830152019 72 164 0.0 3.0 0.00 0.00 0.00 74 1021.9
20260830151543 71 206 0.0 3.0 0.00 0.00 0.00 72 1022.1
20260830151022 71 0 0.0 4.0 0.00 0.00 0.00 75 1022.2
20260830150520 71 184 1.0 4.0 0.00 0.00 0.00 75 1022.0
20260830150041 70 330 0.0 4.0 0.00 0.00 0.00 79 1022.1
20260830145519 70 59 1.0 4.0 0.00 0.00 0.00 75 1022.1
20260830145019 70 158 1.0 4.0 0.00 0.00 0.00 77 1022.0
20260830144546 69 175 1.0 3.0 0.00 0.00 0.00 79 1021.9
20260830144025 68 0 0.0 2.0 0.00 0.00 0.00 83 1021.9
20260830143519 68 0 0.0 0.0 0.00 0.00 0.00 88 1021.9
20260830143045 67 0 0.0 1.0 0.00 0.00 0.00 87 1021.9
20260830142527 67 0 0.0 1.0 0.00 0.00 0.00 88 1021.9
20260830142023 67 188 0.0 1.0 0.00 0.00 0.00 88 1022.1
20260830141540 67 0 0.0 1.0 0.00 0.00 0.00 87 1021.9
20260830141028 67 0 0.0 1.0 0.00 0.00 0.00 87 1022.2
20260830140523 67 0 0.0 1.0 0.00 0.00 0.00 85 1022.2
20260830140045 67 146 0.0 1.0 0.00 0.00 0.00 82 1022.3
20260830135522 66 0 0.0 1.0 0.00 0.00 0.00 86 1022.4
20260830135025 65 0 0.0 1.0 0.00 0.00 0.00 89 1022.3
20260830134544 65 130 0.0 1.0 0.00 0.00 0.00 88 1022.3
20260830134024 64 130 0.0 1.0 0.00 0.00 0.00 87 1022.3
20260830133524 64 0 0.0 1.0 0.00 0.00 0.00 88 1022.3
20260830133047 64 0 0.0 1.0 0.00 0.00 0.00 86 1022.2
20260830132524 64 131 0.0 1.0 0.00 0.00 0.00 86 1022.4
20260830132023 64 212 0.0 1.0 0.00 0.00 0.00 88 1022.3
20260830131546 63 105 0.0 1.0 0.00 0.00 0.00 89 1022.5
20260830131024 63 94 0.0 1.0 0.00 0.00 0.00 90 1022.5
20260830130524 62 0 0.0 1.0 0.00 0.00 0.00 90 1022.8
20260830130045 62 0 0.0 1.0 0.00 0.00 0.00 92 1022.6
20260830125525 61 0 0.0 2.0 0.00 0.00 0.00 95 1022.7
20260830125024 61 0 0.0 2.0 0.00 0.00 0.00 94 1022.8
20260830124545 61 206 1.0 2.0 0.00 0.00 0.00 94 1022.6
20260830124026 60 153 1.0 2.0 0.00 0.00 0.00 95 1022.8
20260830123526 60 207 0.0 3.0 0.00 0.00 0.00 96 1022.8
20260830123048 60 0 0.0 3.0 0.00 0.00 0.00 96 1022.7
20260830122521 59 0 0.0 0.0 0.00 0.00 0.00 97 1022.8
20260830122020 59 0 0.0 0.0 0.00 0.00 0.00 97 1022.8
20260830121543 59 0 0.0 0.0 0.00 0.00 0.00 97 1022.7
20260830121021 58 0 0.0 0.0 0.00 0.00 0.00 97 1022.6
20260830120530 58 0 0.0 0.0 0.00 0.00 0.00 97 1022.5
20260830120050 58 0 0.0 0.0 0.00 0.00 0.00 97 1022.5
20260830115527 57 0 0.0 0.0 0.00 0.00 0.00 97 1022.6
20260830115024 57 0 0.0 0.0 0.00 0.00 0.00 97 1022.7
20260830114555 57 0 0.0 0.0 0.00 0.00 0.00 97 1022.8
20260830114027 57 0 0.0 0.0 0.00 0.00 0.00 97 1022.9
20260830113523 57 0 0.0 0.0 0.00 0.00 0.00 97 1023.0
20260830113041 56 0 0.0 0.0 0.00 0.00 0.00 97 1023.1
20260830112523 56 0 0.0 0.0 0.00 0.00 0.00 97 1023.0
20260830112023 56 0 0.0 0.0 0.00 0.00 0.00 97 1023.0
20260830111541 56 0 0.0 0.0 0.00 0.00 0.00 97 1023.1
20260830111024 56 0 0.0 0.0 0.00 0.00 0.00 97 1023.0
20260830110524 56 0 0.0 0.0 0.00 0.00 0.00 97 1022.9
20260830110049 56 0 0.0 0.0 0.00 0.00 0.00 97 1022.9
20260830105528 56 0 0.0 0.0 0.00 0.00 0.00 97 1022.9
20260830105024 55 0 0.0 0.0 0.00 0.00 0.00 97 1023.0
20260830104544 55 0 0.0 0.0 0.00 0.00 0.00 97 1022.8
20260830104020 55 0 0.0 0.0 0.00 0.00 0.00 97 1022.9
20260830103520 55 0 0.0 0.0 0.00 0.00 0.00 97 1022.9
20260830103042 55 0 0.0 0.0 0.00 0.00 0.00 97 1023.0
20260830102521 55 0 0.0 0.0 0.00 0.00 0.00 97 1022.9
20260830102023 55 0 0.0 0.0 0.00 0.00 0.00 97 1023.0
20260830101542 55 0 0.0 0.0 0.00 0.00 0.00 97 1023.0
20260830101024 55 0 0.0 0.0 0.00 0.00 0.00 97 1023.0
20260830100524 55 0 0.0 0.0 0.00 0.00 0.00 97 1023.0
20260830100046 55 0 0.0 0.0 0.00 0.00 0.00 97 1022.9
20260830095525 55 0 0.0 0.0 0.00 0.00 0.00 97 1022.9
20260830095025 55 0 0.0 0.0 0.00 0.00 0.00 97 1022.9
20260830094604 55 0 0.0 0.0 0.00 0.00 0.00 97 1022.9
20260830094022 54 0 0.0 0.0 0.00 0.00 0.00 97 1023.0
20260830093523 54 0 0.0 0.0 0.00 0.00 0.00 97 1023.0
20260830093046 54 0 0.0 0.0 0.00 0.00 0.00 97 1023.0
20260830092525 54 0 0.0 0.0 0.00 0.00 0.00 97 1023.1
20260830092027 54 0 0.0 0.0 0.00 0.00 0.00 97 1023.1
20260830091546 54 0 0.0 0.0 0.00 0.00 0.00 97 1023.2
20260830091029 54 0 0.0 0.0 0.00 0.00 0.00 97 1023.2
20260830090524 54 0 0.0 0.0 0.00 0.00 0.00 97 1023.1
20260830090048 54 0 0.0 0.0 0.00 0.00 0.00 97 1023.1
20260830085523 54 0 0.0 0.0 0.00 0.00 0.00 97 1023.3
20260830085027 54 0 0.0 0.0 0.00 0.00 0.00 97 1023.2
20260830084542 54 0 0.0 0.0 0.00 0.00 0.00 97 1023.3
20260830084025 54 0 0.0 0.0 0.00 0.00 0.00 97 1023.1
20260830083526 54 0 0.0 0.0 0.00 0.00 0.00 97 1023.2
20260830083052 54 0 0.0 0.0 0.00 0.00 0.00 97 1023.1